contact:dominique.lefevre@mio.osupytheas.fr, maurice.libes@osupytheas.fr, didier.mallarino@osupytheas.fr
Project:EMSO http://www.emso-fr.org/EMSO-France
Depth: 2436.0 m
Title:EMSO Ligure Ouest : Data MII capteur AQUADOPP
Date,Latitude,Longitude,X_East,Y_North,Z_Up,Amplitude_X,Amplitude_Y,Amplitude_Z,Batterie,SoundSpeed,Heading,Pitch,Roll,Pressure,TIS,Speed,Direction
, degrees North, degrees East, m.s-1, m.s-1,m.s-1, 1, 1, 1, Volt, m.s-1, degree, degree, degree, dbar, degree_C, m.s-1, degree
2023-03-20T00:04:03,42.805,6.029,-0.03,0.026,-0.019,104.0,104.0,104.0,13.3,1505.2,335.2,-0.8,1.8,2471.246,13.28,0.039,310.9
2023-03-20T00:07:03,42.805,6.029,-0.037,0.037,-0.002,104.0,104.0,102.0,13.4,1505.2,323.6,-0.8,1.8,2471.229,13.29,0.052,315.0
2023-03-20T00:10:03,42.805,6.029,-0.021,0.002,-0.004,104.0,103.0,102.0,13.3,1505.2,326.3,-0.8,1.8,2471.261,13.29,0.021,275.4
2023-03-20T00:13:03,42.805,6.029,-0.046,0.017,-0.019,105.0,105.0,101.0,13.4,1505.2,336.3,-0.7,1.8,2471.226,13.29,0.049,290.3
2023-03-20T00:16:03,42.805,6.029,-0.039,0.002,-0.057,103.0,104.0,103.0,13.3,1505.2,325.2,-0.8,1.8,2471.243,13.29,0.039,272.9
2023-03-20T00:19:03,42.805,6.029,-0.036,0.023,-0.022,102.0,103.0,103.0,13.4,1505.2,321.8,-0.8,1.8,2471.267,13.29,0.042,302.6
2023-03-20T00:22:03,42.805,6.029,-0.034,0.023,-0.016,105.0,103.0,102.0,13.3,1505.2,341.5,-0.7,1.8,2471.235,13.29,0.041,304.1
2023-03-20T00:25:03,42.805,6.029,-0.038,0.014,-0.002,105.0,102.0,103.0,13.3,1505.2,340.3,-0.8,1.9,2471.239,13.29,0.04,290.2
2023-03-20T00:28:03,42.805,6.029,-0.044,-0.004,-0.023,104.0,103.0,102.0,13.3,1505.2,325.8,-0.8,1.8,2471.214,13.29,0.044,264.8
2023-03-20T00:31:03,42.805,6.029,-0.043,0.011,-0.027,104.0,104.0,103.0,13.4,1505.2,329.7,-0.8,1.8,2471.214,13.29,0.044,284.3
2023-03-20T00:34:03,42.805,6.029,-0.033,0.017,-0.031,102.0,104.0,102.0,13.3,1505.2,329.0,-0.8,1.8,2471.215,13.29,0.037,297.3
2023-03-20T00:37:03,42.805,6.029,-0.04,0.013,-0.023,105.0,104.0,102.0,13.4,1505.2,322.3,-0.8,1.9,2471.221,13.29,0.042,288.0
2023-03-20T00:40:03,42.805,6.029,-0.022,0.017,0.006,104.0,103.0,103.0,13.4,1505.2,322.9,-0.8,1.8,2471.21,13.29,0.027,307.7
2023-03-20T00:43:03,42.805,6.029,-0.026,0.008,-0.015,105.0,104.0,102.0,13.4,1505.2,330.2,-0.7,1.8,2471.231,13.29,0.027,287.1
2023-03-20T00:46:03,42.805,6.029,-0.023,0.003,-0.005,103.0,102.0,103.0,13.4,1505.2,325.2,-0.8,1.8,2471.234,13.29,0.023,277.4
2023-03-20T00:49:03,42.805,6.029,-0.048,0.017,-0.043,103.0,104.0,103.0,13.4,1505.2,325.7,-0.8,1.8,2471.229,13.29,0.05,289.5
2023-03-20T00:52:03,42.805,6.029,-0.034,-0.008,-0.051,103.0,105.0,102.0,13.3,1505.2,320.6,-0.7,1.8,2471.247,13.29,0.034,256.8
2023-03-20T00:55:03,42.805,6.029,-0.037,-0.001,-0.014,104.0,103.0,103.0,13.4,1505.2,319.9,-0.8,1.8,2471.228,13.29,0.037,268.5
2023-03-20T00:58:03,42.805,6.029,-0.026,0.007,-0.005,105.0,103.0,103.0,13.3,1505.2,331.1,-0.7,1.8,2471.217,13.29,0.026,285.1
2023-03-20T01:04:03,42.805,6.029,-0.017,0.036,-0.005,107.0,105.0,105.0,13.3,1505.2,320.7,-0.7,1.8,2471.276,13.28,0.039,334.7
2023-03-20T01:07:03,42.805,6.029,-0.032,0.01,-0.044,105.0,104.0,104.0,13.4,1505.2,328.3,-0.8,1.8,2471.252,13.29,0.033,287.4
2023-03-20T01:10:02,42.805,6.029,-0.022,0.004,-0.042,103.0,104.0,103.0,13.3,1505.2,321.7,-0.8,1.8,2471.255,13.29,0.022,280.3
2023-03-20T01:13:03,42.805,6.029,-0.032,0.015,-0.012,105.0,104.0,103.0,13.3,1505.2,339.5,-0.7,1.8,2471.294,13.29,0.035,295.1
2023-03-20T01:16:03,42.805,6.029,-0.023,0.019,-0.027,104.0,102.0,102.0,13.4,1505.2,331.5,-0.8,1.8,2471.222,13.29,0.029,309.6
2023-03-20T01:19:03,42.805,6.029,-0.017,0.029,-0.015,103.0,104.0,104.0,13.4,1505.2,332.4,-0.8,1.8,2471.265,13.29,0.033,329.6
2023-03-20T01:22:03,42.805,6.029,-0.018,0.025,-0.017,104.0,103.0,103.0,13.3,1505.2,333.4,-0.8,1.8,2471.211,13.29,0.03,324.2
2023-03-20T01:25:03,42.805,6.029,-0.025,-0.005,-0.049,105.0,105.0,101.0,13.3,1505.2,322.9,-0.7,1.8,2471.234,13.29,0.025,258.7
2023-03-20T01:28:03,42.805,6.029,-0.049,0.019,-0.005,104.0,103.0,103.0,13.4,1505.2,317.4,-0.8,1.8,2471.27,13.29,0.052,291.2
2023-03-20T01:31:03,42.805,6.029,-0.043,-0.001,-0.019,104.0,103.0,104.0,13.4,1505.2,318.6,-0.8,1.8,2471.221,13.29,0.043,268.7
2023-03-20T01:34:03,42.805,6.029,-0.023,0.012,-0.036,104.0,102.0,103.0,13.4,1505.2,322.4,-0.8,1.8,2471.209,13.29,0.025,297.6
2023-03-20T01:37:03,42.805,6.029,-0.025,0.021,-0.019,104.0,104.0,102.0,13.4,1505.2,316.2,-0.8,1.8,2471.233,13.29,0.032,310.0
2023-03-20T01:40:03,42.805,6.029,-0.021,0.012,-0.013,105.0,104.0,102.0,13.4,1505.2,319.8,-0.8,1.8,2471.21,13.29,0.024,299.7
2023-03-20T01:43:03,42.805,6.029,-0.039,0.013,-0.028,104.0,102.0,103.0,13.4,1505.2,318.3,-0.8,1.8,2471.242,13.29,0.041,288.4
2023-03-20T01:46:03,42.805,6.029,-0.028,0.008,-0.041,105.0,104.0,103.0,13.4,1505.2,334.3,-0.8,1.8,2471.21,13.29,0.029,285.9
2023-03-20T01:49:03,42.805,6.029,-0.031,0.013,-0.031,105.0,102.0,103.0,13.4,1505.2,333.0,-0.8,1.8,2471.248,13.29,0.033,292.7
2023-03-20T01:52:03,42.805,6.029,-0.047,0.017,-0.045,104.0,104.0,103.0,13.3,1505.2,329.1,-0.8,1.8,2471.223,13.29,0.049,289.9
2023-03-20T01:55:03,42.805,6.029,-0.029,0.004,-0.049,104.0,104.0,103.0,13.3,1505.2,325.3,-0.8,1.8,2471.265,13.29,0.029,277.8
2023-03-20T01:58:03,42.805,6.029,-0.053,0.019,-0.015,104.0,105.0,104.0,13.4,1505.2,318.8,-0.8,1.8,2471.244,13.29,0.056,289.7
2023-03-20T02:04:03,42.805,6.029,-0.033,0.01,-0.041,104.0,105.0,103.0,13.4,1505.2,326.7,-0.8,1.8,2471.31,13.28,0.034,286.9
2023-03-20T02:07:03,42.805,6.029,-0.029,0.025,-0.057,104.0,103.0,103.0,13.4,1505.2,331.1,-0.8,1.8,2471.316,13.29,0.038,310.8
2023-03-20T02:10:03,42.805,6.029,-0.04,0.019,-0.008,103.0,103.0,102.0,13.4,1505.2,323.9,-0.7,1.8,2471.269,13.29,0.044,295.4
2023-03-20T02:13:03,42.805,6.029,-0.033,0.009,-0.015,105.0,104.0,103.0,13.4,1505.2,321.7,-0.7,1.8,2471.292,13.29,0.034,285.3
2023-03-20T02:16:03,42.805,6.029,-0.039,0.005,-0.019,106.0,104.0,104.0,13.4,1505.2,321.7,-0.8,1.8,2471.311,13.29,0.039,277.3
2023-03-20T02:19:03,42.805,6.029,-0.03,0.012,-0.005,104.0,104.0,104.0,13.3,1505.2,327.9,-0.7,1.9,2471.278,13.29,0.032,291.8
2023-03-20T02:22:03,42.805,6.029,-0.043,0.005,-0.031,104.0,104.0,103.0,13.4,1505.2,333.4,-0.8,1.9,2471.294,13.29,0.043,276.6
2023-03-20T02:25:03,42.805,6.029,-0.045,0.002,-0.039,104.0,104.0,104.0,13.3,1505.2,316.7,-0.8,1.8,2471.239,13.29,0.045,272.5
2023-03-20T02:28:03,42.805,6.029,-0.034,0.029,-0.009,106.0,103.0,103.0,13.3,1505.2,326.5,-0.7,1.8,2471.278,13.29,0.044,310.5
2023-03-20T02:31:03,42.805,6.029,-0.045,0.014,-0.007,105.0,105.0,104.0,13.4,1505.2,324.2,-0.7,1.8,2471.249,13.29,0.047,287.3
2023-03-20T02:34:03,42.805,6.029,-0.026,0.012,-0.014,105.0,105.0,103.0,13.4,1505.2,329.1,-0.8,1.8,2471.303,13.29,0.028,294.8
2023-03-20T02:37:03,42.805,6.029,-0.032,0.014,-0.022,104.0,105.0,103.0,13.4,1505.2,338.3,-0.7,1.8,2471.287,13.29,0.034,293.6
2023-03-20T02:40:03,42.805,6.029,-0.046,0.032,-0.003,104.0,105.0,104.0,13.4,1505.2,333.0,-0.8,1.8,2471.294,13.29,0.056,304.8
2023-03-20T02:43:03,42.805,6.029,-0.035,0.021,-0.005,105.0,104.0,103.0,13.4,1505.2,340.9,-0.8,1.8,2471.316,13.29,0.04,301.0
2023-03-20T02:46:03,42.805,6.029,-0.025,0.014,-0.004,107.0,108.0,103.0,13.4,1505.2,333.4,-0.8,1.8,2471.311,13.29,0.028,299.3
2023-03-20T02:49:03,42.805,6.029,-0.004,0.036,-0.009,103.0,106.0,104.0,13.4,1505.2,339.6,-0.8,1.8,2471.274,13.29,0.036,353.7
2023-03-20T02:52:03,42.805,6.029,-0.032,0.0,-0.019,104.0,105.0,104.0,13.4,1505.2,334.8,-0.8,1.8,2471.276,13.29,0.032,270.0
2023-03-20T02:55:03,42.805,6.029,-0.05,0.013,-0.054,104.0,104.0,103.0,13.3,1505.2,339.5,-0.7,1.8,2471.268,13.29,0.051,284.6
2023-03-20T02:58:03,42.805,6.029,-0.045,0.033,-0.016,105.0,104.0,102.0,13.4,1505.2,339.5,-0.8,1.8,2471.301,13.29,0.055,306.3
2023-03-20T03:04:03,42.805,6.029,-0.03,0.013,-0.052,104.0,103.0,104.0,13.4,1505.2,334.6,-0.8,1.8,2471.33,13.28,0.032,293.4
2023-03-20T03:07:03,42.805,6.029,-0.034,0.028,-0.028,105.0,105.0,103.0,13.4,1505.2,341.5,-0.8,1.8,2471.318,13.29,0.044,309.5
2023-03-20T03:10:03,42.805,6.029,-0.041,0.027,-0.028,105.0,104.0,103.0,13.4,1505.2,326.0,-0.7,1.8,2471.366,13.29,0.049,303.4
2023-03-20T03:13:03,42.805,6.029,-0.013,0.021,-0.021,107.0,106.0,103.0,13.3,1505.2,328.2,-0.8,1.8,2471.319,13.29,0.024,328.2
2023-03-20T03:16:03,42.805,6.029,-0.012,0.008,-0.023,106.0,105.0,103.0,13.4,1505.2,342.5,-0.7,1.8,2471.356,13.29,0.014,303.7
2023-03-20T03:19:03,42.805,6.029,-0.046,0.028,0.0,105.0,105.0,104.0,13.4,1505.2,319.0,-0.8,1.8,2471.336,13.29,0.053,301.3
2023-03-20T03:22:03,42.805,6.029,-0.046,0.018,-0.021,105.0,105.0,103.0,13.4,1505.2,325.5,-0.8,1.8,2471.328,13.29,0.049,291.4
2023-03-20T03:25:03,42.805,6.029,-0.01,0.008,-0.041,104.0,104.0,104.0,13.3,1505.2,324.2,-0.8,1.8,2471.328,13.29,0.012,308.7
2023-03-20T03:28:03,42.805,6.029,-0.039,0.027,-0.034,103.0,103.0,102.0,13.4,1505.2,326.7,-0.8,1.8,2471.359,13.29,0.047,304.7
2023-03-20T03:31:03,42.805,6.029,-0.021,0.043,-0.017,104.0,105.0,103.0,13.3,1505.2,343.4,-0.8,1.8,2471.329,13.29,0.047,334.0
2023-03-20T03:34:03,42.805,6.029,-0.054,0.011,-0.024,104.0,103.0,104.0,13.4,1505.2,317.4,-0.8,1.8,2471.359,13.29,0.055,281.5
2023-03-20T03:37:03,42.805,6.029,-0.026,0.057,0.024,105.0,104.0,102.0,13.3,1505.2,333.4,-0.8,1.8,2471.362,13.29,0.062,335.5
2023-03-20T03:40:03,42.805,6.029,-0.033,0.031,-0.009,104.0,102.0,103.0,13.3,1505.2,332.9,-0.8,1.8,2471.343,13.29,0.045,313.2
2023-03-20T03:43:03,42.805,6.029,-0.02,0.014,-0.024,104.0,104.0,103.0,13.3,1505.2,333.0,-0.8,1.8,2471.367,13.29,0.024,305.0
2023-03-20T03:46:03,42.805,6.029,-0.042,0.007,-0.025,105.0,104.0,102.0,13.3,1505.2,326.8,-0.8,1.8,2471.394,13.29,0.042,279.5
2023-03-20T03:49:03,42.805,6.029,-0.03,0.014,-0.011,103.0,104.0,102.0,13.4,1505.2,322.4,-0.8,1.8,2471.369,13.29,0.033,295.0
2023-03-20T03:52:03,42.805,6.029,-0.028,0.015,-0.018,103.0,105.0,103.0,13.3,1505.2,331.5,-0.7,1.8,2471.381,13.29,0.031,298.2
2023-03-20T03:55:03,42.805,6.029,-0.028,0.032,-0.033,104.0,103.0,102.0,13.4,1505.2,334.6,-0.8,1.8,2471.358,13.29,0.042,318.8
2023-03-20T03:58:03,42.805,6.029,-0.035,0.026,-0.03,104.0,104.0,103.0,13.4,1505.2,338.2,-0.7,1.8,2471.382,13.29,0.043,306.6
2023-03-20T04:04:03,42.805,6.029,-0.046,0.022,-0.031,104.0,103.0,102.0,13.4,1505.2,342.1,-0.8,1.8,2471.435,13.28,0.05,295.6
2023-03-20T04:07:03,42.805,6.029,-0.037,0.015,-0.002,104.0,105.0,103.0,13.4,1505.2,318.5,-0.8,1.8,2471.429,13.28,0.039,292.1
2023-03-20T04:10:03,42.805,6.029,-0.038,0.01,-0.026,104.0,104.0,103.0,13.3,1505.2,319.6,-0.8,1.8,2471.437,13.29,0.039,284.7
2023-03-20T04:13:03,42.805,6.029,-0.032,0.025,-0.035,104.0,103.0,103.0,13.4,1505.2,336.0,-0.8,1.8,2471.427,13.29,0.04,308.0
2023-03-20T04:16:03,42.805,6.029,-0.03,0.046,-0.02,103.0,103.0,103.0,13.3,1505.2,340.2,-0.7,1.8,2471.44,13.29,0.054,326.9
2023-03-20T04:19:03,42.805,6.029,-0.036,0.005,-0.017,104.0,104.0,103.0,13.4,1505.2,319.9,-0.8,1.8,2471.454,13.29,0.036,277.9
2023-03-20T04:22:03,42.805,6.029,-0.048,0.037,0.006,103.0,103.0,103.0,13.4,1505.2,325.7,-0.7,1.8,2471.425,13.29,0.06,307.6
2023-03-20T04:25:03,42.805,6.029,-0.015,0.018,-0.05,102.0,104.0,103.0,13.4,1505.2,319.4,-0.8,1.8,2471.38,13.29,0.023,320.2
2023-03-20T04:28:03,42.805,6.029,-0.038,0.031,-0.005,105.0,103.0,103.0,13.3,1505.2,320.9,-0.8,1.8,2471.406,13.29,0.049,309.2
2023-03-20T04:31:03,42.805,6.029,-0.018,0.015,0.004,104.0,104.0,103.0,13.3,1505.2,326.0,-0.8,1.8,2471.403,13.29,0.023,309.8
2023-03-20T04:34:03,42.805,6.029,-0.017,0.031,-0.02,104.0,103.0,103.0,13.4,1505.2,342.2,-0.8,1.8,2471.392,13.29,0.035,331.3
2023-03-20T04:37:03,42.805,6.029,-0.031,0.033,-0.008,104.0,103.0,103.0,13.4,1505.2,331.8,-0.8,1.8,2471.411,13.29,0.045,316.8
2023-03-20T04:40:03,42.805,6.029,-0.031,0.014,-0.062,104.0,103.0,103.0,13.3,1505.2,326.7,-0.8,1.8,2471.443,13.29,0.034,294.3
2023-03-20T04:43:03,42.805,6.029,-0.039,0.023,-0.027,104.0,104.0,102.0,13.4,1505.2,330.5,-0.8,1.8,2471.437,13.29,0.045,300.5
2023-03-20T04:46:03,42.805,6.029,-0.031,0.0,-0.022,105.0,103.0,102.0,13.4,1505.2,324.3,-0.7,1.8,2471.448,13.29,0.03,270.0
2023-03-20T04:49:03,42.805,6.029,-0.056,0.027,-0.021,104.0,103.0,103.0,13.4,1505.2,331.1,-0.8,1.8,2471.445,13.29,0.062,295.7
2023-03-20T04:52:03,42.805,6.029,-0.024,0.032,-0.049,103.0,103.0,102.0,13.4,1505.2,342.5,-0.8,1.8,2471.42,13.29,0.04,323.1
2023-03-20T04:55:03,42.805,6.029,-0.022,0.021,0.003,102.0,105.0,103.0,13.4,1505.2,335.2,-0.8,1.8,2471.464,13.29,0.03,313.7
2023-03-20T04:58:03,42.805,6.029,-0.027,0.033,-0.036,102.0,102.0,102.0,13.3,1505.2,328.8,-0.8,1.8,2471.465,13.29,0.042,320.7
2023-03-20T05:04:03,42.805,6.029,-0.024,0.018,-0.034,104.0,105.0,103.0,13.4,1505.2,342.8,-0.8,1.8,2471.474,13.28,0.03,306.9
2023-03-20T05:07:03,42.805,6.029,-0.032,0.034,-0.009,105.0,105.0,103.0,13.4,1505.2,326.7,-0.8,1.8,2471.479,13.29,0.046,316.7
2023-03-20T05:10:03,42.805,6.029,-0.025,0.006,-0.03,104.0,104.0,102.0,13.4,1505.2,334.2,-0.8,1.8,2471.5,13.29,0.025,283.5
2023-03-20T05:13:03,42.805,6.029,-0.035,0.021,-0.009,103.0,104.0,102.0,13.3,1505.2,317.8,-0.8,1.8,2471.508,13.29,0.04,301.0
2023-03-20T05:16:03,42.805,6.029,-0.044,0.037,-0.031,102.0,103.0,103.0,13.4,1505.2,337.3,-0.8,1.8,2471.532,13.29,0.057,310.1
2023-03-20T05:19:03,42.805,6.029,-0.048,0.029,-0.033,103.0,102.0,102.0,13.4,1505.2,334.7,-0.8,1.8,2471.475,13.29,0.056,301.1
2023-03-20T05:22:03,42.805,6.029,-0.052,0.013,-0.049,103.0,102.0,103.0,13.4,1505.2,326.5,-0.8,1.8,2471.497,13.29,0.053,284.0
2023-03-20T05:25:03,42.805,6.029,-0.049,0.054,-0.008,105.0,103.0,101.0,13.4,1505.2,329.0,-0.8,1.8,2471.479,13.29,0.072,317.8
2023-03-20T05:28:03,42.805,6.029,0.001,0.015,-0.026,104.0,102.0,104.0,13.3,1505.2,330.4,-0.8,1.8,2471.459,13.29,0.015,3.8
2023-03-20T05:31:03,42.805,6.029,-0.048,0.04,-0.006,102.0,103.0,102.0,13.4,1505.2,325.3,-0.8,1.8,2471.461,13.29,0.062,309.8
2023-03-20T05:34:03,42.805,6.029,-0.034,0.058,-0.003,104.0,103.0,101.0,13.3,1505.2,338.7,-0.8,1.8,2471.484,13.29,0.067,329.6
2023-03-20T05:37:03,42.805,6.029,-0.035,0.032,-0.016,103.0,103.0,101.0,13.4,1505.2,320.4,-0.8,1.8,2471.516,13.29,0.047,312.4
2023-03-20T05:40:03,42.805,6.029,-0.057,0.039,-0.009,103.0,101.0,103.0,13.4,1505.2,327.9,-0.7,1.8,2471.485,13.29,0.069,304.4
2023-03-20T05:43:03,42.805,6.029,-0.026,0.023,-0.022,102.0,102.0,102.0,13.4,1505.2,332.0,-0.7,1.8,2471.465,13.29,0.034,311.5
2023-03-20T05:46:03,42.805,6.029,-0.035,0.044,-0.026,103.0,103.0,101.0,13.4,1505.2,341.2,-0.7,1.8,2471.468,13.29,0.056,321.5
2023-03-20T05:49:03,42.805,6.029,-0.035,0.031,-0.024,103.0,102.0,102.0,13.4,1505.2,334.6,-0.8,1.8,2471.499,13.29,0.046,311.5
2023-03-20T05:52:03,42.805,6.029,-0.03,0.034,-0.028,102.0,102.0,102.0,13.4,1505.2,322.5,-0.8,1.8,2471.511,13.29,0.045,318.6
2023-03-20T05:55:03,42.805,6.029,-0.035,0.022,-0.029,103.0,103.0,102.0,13.3,1505.2,326.5,-0.8,1.8,2471.49,13.29,0.041,302.2
2023-03-20T05:58:03,42.805,6.029,-0.028,0.029,0.01,104.0,101.0,102.0,13.4,1505.2,322.2,-0.8,1.8,2471.447,13.29,0.04,316.0
2023-03-20T06:04:03,42.805,6.029,-0.033,0.058,-0.015,103.0,102.0,102.0,13.4,1505.2,333.8,-0.8,1.8,2471.549,13.28,0.066,330.4
2023-03-20T06:07:03,42.805,6.029,-0.017,0.026,-0.002,102.0,102.0,101.0,13.4,1505.2,317.2,-0.8,1.8,2471.518,13.29,0.031,326.8
2023-03-20T06:10:03,42.805,6.029,-0.037,0.037,-0.039,103.0,102.0,101.0,13.4,1505.2,324.8,-0.7,1.8,2471.549,13.29,0.052,315.0
2023-03-20T06:13:03,42.805,6.029,-0.036,0.038,-0.015,103.0,103.0,102.0,13.4,1505.2,326.7,-0.8,1.8,2471.499,13.29,0.052,316.5
2023-03-20T06:16:03,42.805,6.029,-0.029,0.043,-0.014,103.0,101.0,102.0,13.3,1505.2,333.0,-0.8,1.8,2471.531,13.29,0.051,326.0
2023-03-20T06:19:03,42.805,6.029,-0.035,0.035,-0.019,104.0,102.0,100.0,13.4,1505.2,332.6,-0.8,1.8,2471.511,13.29,0.049,315.0
2023-03-20T06:22:03,42.805,6.029,-0.031,0.025,-0.042,103.0,102.0,102.0,13.4,1505.2,329.1,-0.8,1.8,2471.51,13.29,0.039,308.9
2023-03-20T06:25:03,42.805,6.029,-0.028,0.038,-0.028,103.0,102.0,102.0,13.4,1505.2,331.6,-0.8,1.8,2471.471,13.29,0.047,323.6
2023-03-20T06:28:03,42.805,6.029,-0.041,0.033,0.001,103.0,104.0,101.0,13.4,1505.2,321.7,-0.8,1.8,2471.498,13.29,0.052,308.8
2023-03-20T06:31:03,42.805,6.029,-0.038,0.038,-0.005,105.0,101.0,102.0,13.4,1505.2,317.4,-0.7,1.8,2471.525,13.29,0.053,315.0
2023-03-20T06:34:03,42.805,6.029,-0.035,0.015,-0.029,102.0,103.0,101.0,13.4,1505.2,335.0,-0.8,1.8,2471.524,13.29,0.038,293.2
2023-03-20T06:37:03,42.805,6.029,-0.041,0.031,-0.019,102.0,102.0,102.0,13.4,1505.2,324.6,-0.7,1.8,2471.481,13.29,0.051,307.1
2023-03-20T06:40:03,42.805,6.029,-0.034,0.029,-0.031,104.0,102.0,101.0,13.4,1505.2,323.6,-0.8,1.8,2471.485,13.29,0.044,310.5
2023-03-20T06:43:03,42.805,6.029,-0.05,0.039,-0.04,102.0,103.0,102.0,13.3,1505.2,332.1,-0.8,1.9,2471.478,13.29,0.063,308.0
2023-03-20T06:46:03,42.805,6.029,-0.036,0.043,-0.027,103.0,103.0,102.0,13.3,1505.2,338.9,-0.7,1.8,2471.474,13.29,0.056,320.1
2023-03-20T06:49:03,42.805,6.029,-0.049,0.029,-0.018,103.0,103.0,102.0,13.4,1505.2,322.9,-0.7,1.8,2471.46,13.29,0.056,300.6
2023-03-20T06:52:03,42.805,6.029,-0.029,0.02,-0.033,104.0,103.0,102.0,13.3,1505.2,332.6,-0.7,1.8,2471.471,13.29,0.035,304.6
2023-03-20T06:55:03,42.805,6.029,-0.041,0.018,-0.01,103.0,102.0,102.0,13.4,1505.2,328.1,-0.7,1.8,2471.489,13.29,0.044,293.7
2023-03-20T06:58:03,42.805,6.029,-0.005,0.026,0.011,102.0,102.0,102.0,13.4,1505.2,322.5,-0.7,1.8,2471.537,13.29,0.026,349.1
2023-03-20T07:04:03,42.805,6.029,-0.013,0.018,-0.025,102.0,104.0,102.0,13.3,1505.2,319.0,-0.8,1.8,2471.557,13.28,0.022,324.2
2023-03-20T07:07:03,42.805,6.029,-0.036,0.023,0.0,103.0,103.0,103.0,13.4,1505.2,324.9,-0.8,1.8,2471.5,13.28,0.042,302.6
2023-03-20T07:10:03,42.805,6.029,-0.043,0.034,-0.026,104.0,102.0,103.0,13.4,1505.2,334.4,-0.7,1.8,2471.498,13.29,0.054,308.3
2023-03-20T07:13:03,42.805,6.029,-0.024,0.028,-0.013,105.0,104.0,102.0,13.4,1505.2,325.8,-0.7,1.8,2471.507,13.29,0.036,319.4
2023-03-20T07:16:03,42.805,6.029,-0.062,0.012,-0.041,102.0,102.0,103.0,13.4,1505.2,319.6,-0.8,1.8,2471.479,13.29,0.063,281.0
2023-03-20T07:19:03,42.805,6.029,-0.034,0.049,-0.005,103.0,103.0,104.0,13.4,1505.2,340.9,-0.8,1.8,2471.484,13.29,0.059,325.2
2023-03-20T07:22:03,42.805,6.029,-0.01,0.056,-0.001,102.0,103.0,102.0,13.4,1505.2,336.8,-0.8,1.8,2471.491,13.29,0.056,349.9
2023-03-20T07:25:03,42.805,6.029,-0.039,0.037,-0.017,103.0,103.0,103.0,13.4,1505.2,340.0,-0.7,1.8,2471.485,13.29,0.053,313.5
2023-03-20T07:28:03,42.805,6.029,-0.06,0.037,-0.025,104.0,102.0,103.0,13.4,1505.2,317.9,-0.8,1.8,2471.478,13.29,0.07,301.7
2023-03-20T07:31:03,42.805,6.029,-0.02,0.039,-0.009,101.0,102.0,103.0,13.4,1505.2,324.9,-0.7,1.8,2471.493,13.29,0.043,332.9
2023-03-20T07:34:03,42.805,6.029,-0.035,0.005,-0.056,103.0,103.0,102.0,13.3,1505.2,329.3,-0.7,1.9,2471.484,13.29,0.035,278.1
2023-03-20T07:37:03,42.805,6.029,-0.032,0.045,0.005,102.0,103.0,103.0,13.3,1505.2,329.8,-0.8,1.8,2471.517,13.29,0.055,324.6
2023-03-20T07:40:03,42.805,6.029,-0.043,0.034,-0.019,103.0,103.0,102.0,13.4,1505.2,326.0,-0.8,1.8,2471.496,13.29,0.054,308.3
2023-03-20T07:43:03,42.805,6.029,-0.046,0.032,-0.024,103.0,103.0,102.0,13.3,1505.2,326.5,-0.8,1.8,2471.495,13.29,0.056,304.8
2023-03-20T07:46:03,42.805,6.029,-0.012,0.024,-0.02,104.0,102.0,103.0,13.3,1505.2,325.7,-0.8,1.8,2471.433,13.29,0.026,333.4
2023-03-20T07:49:03,42.805,6.029,-0.039,0.007,-0.023,104.0,103.0,102.0,13.3,1505.2,317.2,-0.7,1.8,2471.458,13.29,0.039,280.2
2023-03-20T07:52:03,42.805,6.029,-0.054,0.029,-0.022,104.0,103.0,103.0,13.4,1505.2,326.5,-0.8,1.8,2471.48,13.29,0.061,298.2
2023-03-20T07:55:03,42.805,6.029,-0.031,0.038,-0.011,104.0,103.0,103.0,13.4,1505.2,320.0,-0.8,1.8,2471.447,13.29,0.049,320.8
2023-03-20T07:58:03,42.805,6.029,-0.026,0.03,-0.01,103.0,103.0,103.0,13.4,1505.2,323.8,-0.8,1.9,2471.476,13.29,0.039,319.1
2023-03-20T08:04:03,42.805,6.029,-0.036,0.049,0.0,104.0,104.0,103.0,13.4,1505.2,321.8,-0.8,1.8,2471.494,13.28,0.06,323.7
2023-03-20T08:07:03,42.805,6.029,-0.038,0.007,-0.019,103.0,105.0,102.0,13.4,1505.2,322.7,-0.8,1.8,2471.509,13.29,0.038,280.4
2023-03-20T08:10:03,42.805,6.029,-0.054,0.014,-0.012,107.0,104.0,102.0,13.4,1505.2,318.3,-0.8,1.8,2471.474,13.29,0.055,284.5
2023-03-20T08:13:03,42.805,6.029,-0.027,0.028,-0.016,105.0,103.0,103.0,13.4,1505.2,332.0,-0.8,1.8,2471.496,13.29,0.038,316.0
2023-03-20T08:16:03,42.805,6.029,-0.002,0.004,-0.04,105.0,102.0,103.0,13.4,1505.2,320.4,-0.7,1.8,2471.464,13.29,0.004,333.4
2023-03-20T08:19:03,42.805,6.029,-0.021,0.035,0.0,104.0,104.0,102.0,13.4,1505.2,326.0,-0.8,1.8,2471.452,13.29,0.04,329.0
2023-03-20T08:22:03,42.805,6.029,-0.036,0.035,-0.043,104.0,103.0,102.0,13.4,1505.2,336.4,-0.8,1.8,2471.439,13.29,0.05,314.2
2023-03-20T08:25:03,42.805,6.029,-0.034,0.019,-0.019,103.0,102.0,102.0,13.4,1505.2,318.0,-0.7,1.8,2471.498,13.29,0.038,299.2
2023-03-20T08:28:03,42.805,6.029,-0.046,0.041,-0.008,104.0,102.0,102.0,13.4,1505.2,330.1,-0.8,1.8,2471.446,13.29,0.061,311.7
2023-03-20T08:31:03,42.805,6.029,-0.053,0.032,-0.045,102.0,103.0,103.0,13.4,1505.2,341.2,-0.8,1.8,2471.421,13.29,0.061,301.1
2023-03-20T08:34:03,42.805,6.029,-0.021,0.028,-0.018,103.0,102.0,103.0,13.4,1505.2,330.1,-0.8,1.8,2471.403,13.29,0.035,323.1
2023-03-20T08:37:03,42.805,6.029,-0.05,0.018,-0.028,103.0,103.0,102.0,13.4,1505.2,324.6,-0.7,1.8,2471.441,13.29,0.053,289.8
2023-03-20T08:40:03,42.805,6.029,-0.036,0.038,-0.036,105.0,103.0,103.0,13.4,1505.2,334.8,-0.8,1.8,2471.442,13.29,0.052,316.5
2023-03-20T08:43:03,42.805,6.029,-0.048,0.029,-0.047,103.0,102.0,104.0,13.4,1505.2,326.0,-0.8,1.8,2471.447,13.29,0.056,301.1
2023-03-20T08:46:03,42.805,6.029,-0.017,0.041,-0.025,104.0,104.0,103.0,13.4,1505.2,342.8,-0.8,1.8,2471.452,13.29,0.044,337.5
2023-03-20T08:49:03,42.805,6.029,-0.043,0.054,0.006,104.0,103.0,102.0,13.3,1505.2,327.4,-0.8,1.8,2471.421,13.29,0.069,321.5
2023-03-20T08:52:03,42.805,6.029,-0.03,0.02,-0.043,103.0,103.0,103.0,13.4,1505.2,342.1,-0.8,1.8,2471.472,13.29,0.036,303.7
2023-03-20T08:55:03,42.805,6.029,-0.029,0.016,-0.043,104.0,104.0,103.0,13.4,1505.2,315.5,-0.7,1.8,2471.453,13.29,0.033,298.9
2023-03-20T08:58:03,42.805,6.029,-0.029,0.018,-0.014,104.0,104.0,103.0,13.4,1505.2,323.4,-0.8,1.8,2471.422,13.29,0.034,301.8
2023-03-20T09:04:03,42.805,6.029,-0.058,0.035,-0.033,104.0,104.0,104.0,13.4,1505.2,327.9,-0.8,1.8,2471.455,13.28,0.067,301.1
2023-03-20T09:07:03,42.805,6.029,-0.046,0.048,-0.005,104.0,104.0,102.0,13.4,1505.2,336.8,-0.8,1.8,2471.465,13.28,0.066,316.2
2023-03-20T09:10:03,42.805,6.029,-0.033,0.019,-0.008,105.0,104.0,102.0,13.4,1505.2,321.8,-0.7,1.8,2471.464,13.29,0.038,299.9
2023-03-20T09:13:03,42.805,6.029,-0.035,0.026,-0.018,104.0,103.0,103.0,13.4,1505.2,319.1,-0.7,1.8,2471.454,13.29,0.043,306.6
2023-03-20T09:16:03,42.805,6.029,-0.041,0.017,-0.021,103.0,104.0,102.0,13.4,1505.2,331.5,-0.8,1.8,2471.444,13.29,0.044,292.5
2023-03-20T09:19:03,42.805,6.029,-0.036,0.052,0.0,103.0,105.0,102.0,13.4,1505.2,334.6,-0.8,1.9,2471.385,13.29,0.063,325.3
2023-03-20T09:22:03,42.805,6.029,-0.024,0.036,-0.025,103.0,103.0,103.0,13.4,1505.2,339.1,-0.7,1.8,2471.439,13.29,0.043,326.3
2023-03-20T09:25:03,42.805,6.029,-0.025,0.038,-0.01,103.0,104.0,103.0,13.4,1505.2,331.5,-0.8,1.8,2471.406,13.29,0.045,326.7
2023-03-20T09:28:03,42.805,6.029,-0.025,0.018,-0.022,104.0,103.0,103.0,13.4,1505.2,332.3,-0.7,1.8,2471.41,13.29,0.03,305.8
2023-03-20T09:31:03,42.805,6.029,-0.033,0.022,0.0,105.0,104.0,103.0,13.3,1505.2,335.7,-0.8,1.8,2471.406,13.29,0.039,303.7
2023-03-20T09:34:03,42.805,6.029,-0.018,0.038,-0.031,104.0,103.0,103.0,13.4,1505.2,338.3,-0.8,1.8,2471.371,13.29,0.042,334.7
2023-03-20T09:37:03,42.805,6.029,-0.02,0.036,-0.015,103.0,103.0,102.0,13.4,1505.2,332.0,-0.8,1.8,2471.381,13.29,0.041,330.9
2023-03-20T09:40:03,42.805,6.029,-0.046,0.037,-0.003,104.0,102.0,102.0,13.3,1505.2,327.2,-0.8,1.8,2471.404,13.29,0.059,308.8
2023-03-20T09:43:03,42.805,6.029,-0.013,0.032,0.016,104.0,103.0,103.0,13.4,1505.2,335.5,-0.8,1.8,2471.38,13.29,0.034,337.9
2023-03-20T09:46:03,42.805,6.029,-0.038,0.028,-0.022,103.0,105.0,102.0,13.3,1505.2,327.3,-0.8,1.8,2471.395,13.29,0.047,306.4
2023-03-20T09:49:03,42.805,6.029,-0.029,0.036,0.017,104.0,103.0,103.0,13.4,1505.2,316.1,-0.8,1.8,2471.385,13.29,0.046,321.1
2023-03-20T09:52:03,42.805,6.029,-0.023,0.018,-0.012,104.0,104.0,102.0,13.4,1505.2,324.6,-0.7,1.8,2471.367,13.29,0.029,308.0